NOAA 16 DEB, 42366

Orbit data source: Space-Track

NOAA 16 DEB, 42366 is space debris in SSO originally from a launch on Thu, 21 Sep 2000 UTC launched from the Air Force Western Test Range (AFWTR). Debris objects in space refer to the collection of defunct objects orbiting the Earth. Examples of debris include non-operational satellites, rocket bodies, and fragments generated from explosions, collisions, or faulty payload assembly.

Loading next visibility...
Identifier
42366, 2000-055RJ
Orbit
SSO
Country
Flag of USUS
Related business
Manufacturer
Unknown
Mission
Spacecraft
Bus & Motor
Unknown
Mass
Unknown
Launch date (UTC)
2000-09-21 (25 years ago)
Launch vehicle
Unknown
Launch site
Air Force Western Test Range (AFWTR)
Object type
Payload
Rocket body
Debris
Shape & HBR
Unknown
Radar Cross Section
Small (<0.1 m²)

Expand to show TLE details & history
Last TLE update: 22 hours ago

TLE from 22 hours ago
0 NOAA 16 DEB
1 42366U 00055RJ  25261.14314681  .00032676  00000-0  34428-2 0  9992
2 42366  98.8785 148.9877 0025866 316.1546  43.7614 14.89016641504144
Epoch: 2025-09-18T03:26Z
TLE epoch observation values (Epoch: 2025-09-18T03:26:07.884Z)
Latitude
-0.00004°
Longitude
100.14588°
Altitude
590.991 km
Speed
7.572 km/s
True Right ascension
09h 55m 57s
True Declination
0° 00' 00"
Sunlit
Object was in daylight at epoch
Visualization orbit readout
Latitude
Unknown
Longitude
Unknown
Altitude
Unknown
Speed
Unknown
Apparent Right ascension
Unknown
Apparent Declination
Unknown
Sunlit
N/A
Visualization observer readout
Local Sidereal Time
18:28:57
Azimuth
Unknown
Elevation
Unknown
Doppler factor
Unknown
Orbital elements
Apogee altitude
616.127 km
Perigee altitude
580.037 km
Semi-major axis
6,976.219 km
Eccentricity
0.00259
Inclination
98.8785°
RAAN
148.9877°
Arg. of periapsis
316.1546°
True anomaly
43.96689°
Mean anomaly
43.7614°
Eccentric anomaly
43.8641°
Mean motion
3.72489 °/min
Orbital period
96.65 mins
BSTAR
0.0034428
Loading maneuver chart data...
Computing Atmospheric mass density...
Loading historical data...
Loading historical data...
Loading historical data...
Loading historical data...
Loading historical data...
Loading historical data...
Loading historical data...

Documentation

Showing up to 5 results
|